Temp
12 12 13 14 14 15 15 15 14 12 11 11 11 11 12 12 11 11 10 10 10 10 9 9 9 8 8 8 8 8 8 9 9 9 9 8 8 8 9 9 9 9 8
12 12 13 14 14 15 15 15 14 13 11 11 11 11 11 11 11 11 10 11 11 10 10 10 10 9 9 9 9 9 9 8 8 9 9 8 8 8 8 8 8 8 8
10 11 12 12 13 14 15 15 15 13 13 11 11 11 12 12 12 12 11 10 11 10 11 11 10 10 10 10 10 9 9 8 8 9 8 8 8 8 8 8 8 8 8
9 9 11 12 11 11 13 14 14 13 13 11 12 12 12 12 13 12 12 11 10 11 11 10 10 11 10 10 10 9 9 9 9 9 9 8 8 8 8 8 8 8 8
8 9 10 10 12 11 11 10 11 12 12 12 12 11 12 12 13 13 13 12 11 11 10 10 10 10 10 10 10 9 9 9 8 9 9 9 8 8 8 8 8 8 8
8 8 9 10 10 10 10 11 10 10 10 10 11 11 11 11 12 12 12 13 11 10 10 10 10 10 10 10 10 10 9 9 9 8 8 9 8 8 8 8 8 8 8
8 8 8 8 8 9 9 10 11 10 9 10 11 10 11 10 10 10 11 12 12 11 10 10 10 10 10 10 10 9 9 9 9 9 8 8 9 9 9 9 8 8 8
7 7 7 7 7 7 8 8 9 10 10 10 10 10 11 11 11 10 10 11 12 12 10 9 9 9 10 10 9 9 9 9 9 9 9 9 8 8 8 9 9 9 8
7 7 7 7 7 7 8 8 9 9 9 10 9 10 10 9 9 9 9 9 10 10 10 9 8 8 9 9 10 9 9 9 9 9 8 8 8 8 8 8 8 8 8
6 6 7 7 7 7 6 7 7 8 8 9 9 8 8 8 8 8 9 8 8 8 8 8 8 8 7 8 8 9 9 8 8 8 8 8 8 8 7 7 7 8 8
6 6 6 6 7 7 7 7 7 7 8 8 8 7 8 8 9 9 9 9 9 8 7 7 9 8 8 7 6 7 8 7 7 8 8 8 8 7 7 7 7 7 7
6 6 6 6 6 6 6 6 6 7 7 7 7 8 8 8 8 9 9 8 8 7 7 8 8 8 7 6 6 6 7 6 6 7 7 7 7 7 7 7 7 7 7
5 6 6 6 7 7 7 7 7 7 7 7 8 9 8 7 7 7 7 7 8 7 8 7 7 7 6 6 5 5 6 5 6 6 6 6 6 6 6 6 7 7 7
5 5 6 6 7 6 6 6 6 7 8 8 7 6 6 7 7 8 7 6 7 7 7 7 7 7 6 6 5 5 5 5 6 6 5 5 5 5 6 6 5 6 6
5 5 6 6 6 6 5 5 5 5 6 6 5 5 5 6 7 7 7 6 6 6 7 7 7 6 5 5 5 5 5 5 5 5 5 5 5 6 5 5 4 5 6
4 5 5 6 6 6 5 5 5 5 5 5 5 5 5 5 5 5 5 5 5 5 5 5 5 5 5 5 5 6 5 5 5 5 5 5 5 5 4 5 4 4 6
3 4 5 5 6 6 6 5 5 4 4 5 5 5 5 5 5 5 5 5 5 5 5 6 6 5 5 4 5 5 5 5 5 5 6 6 5 5 5 5 5 5 6
3 3 4 4 5 5 5 5 5 4 4 4 4 4 4 5 5 5 5 5 6 6 6 5 5 5 6 6 6 5 5 6 6 5 5 5 5 5 5 4 4 4 4
3 3 3 4 4 4 4 4 4 4 4 4 3 4 4 4 4 4 4 4 4 5 5 5 5 5 5 6 6 6 6 6 5 5 5 5 4 4 3 3 3 3 3
3 3 3 4 4 4 4 4 3 4 4 4 4 3 3 3 4 3 3 4 4 4 4 4 5 5 5 5 5 5 5 5 5 5 4 4 4 4 3 3 3 3 3
3 3 3 3 3 3 3 4 4 3 3 3 3 4 4 4 4 4 4 4 4 4 4 4 4 4 4 4 4 4 4 4 4 4 3 3 3 3 3 3 3 3 3
3 3 3 3 3 3 4 4 4 3 3 3 4 4 4 4 4 3 3 3 3 3 4 3 3 3 3 3 3 3 3 3 2 2 2 2 2 2 2 3 3 2 2
3 3 3 3 3 3 3 3 3 3 3 3 4 4 4 4 4 4 4 4 3 3 3 3 3 3 2 2 2 2 2 2 2 2 2 2 2 2 2 2 2 2 1
2 2 2 3 3 3 3 3 3 3 3 3 3 3 3 3 3 3 3 3 3 3 3 3 2 2 2 2 2 2 2 2 2 2 1 1 1 1 1 1 1 1 1
2 2 2 2 2 2 1 2 2 2 3 2 2 3 3 3 3 3 3 3 3 3 2 2 2 1 2 1 2 1 1 1 1 2 1 0 0 0 -0 -1 -1 -0 -0
2 2 1 2 2 1 1 1 2 1 1 1 1 2 2 1 1 2 2 2 2 2 2 2 1 0 0 1 1 1 1 1 1 1 1 0 -0 -0 -0 -0 -1 -0 0
Height
3100 3102 3104 3107 3108 3111 3117 3122 3127 3132 3137 3140 3145 3150 3153 3154 3155 3156 3157 3157 3157 3158 3157 3157 3157 3158 3160 3161 3163 3164 3165 3165 3164 3167 3165 3164 3163 3163 3161 3160 3159 3158 3157
3091 3094 3095 3098 3100 3103 3110 3112 3115 3120 3126 3130 3136 3139 3142 3146 3147 3149 3150 3152 3153 3153 3153 3153 3154 3155 3157 3157 3158 3159 3159 3159 3159 3160 3160 3159 3159 3158 3155 3154 3152 3151 3150
3082 3084 3088 3089 3092 3096 3100 3103 3105 3111 3116 3121 3125 3130 3134 3136 3139 3142 3144 3145 3147 3149 3149 3150 3150 3151 3152 3152 3153 3153 3153 3154 3154 3155 3154 3154 3154 3152 3151 3150 3149 3149 3148
3077 3076 3078 3081 3085 3087 3089 3092 3096 3101 3106 3111 3114 3120 3124 3128 3130 3132 3135 3137 3141 3143 3145 3146 3145 3146 3147 3148 3148 3148 3148 3149 3149 3150 3151 3149 3150 3148 3147 3146 3146 3144 3143
3070 3068 3068 3070 3075 3080 3082 3084 3087 3091 3096 3101 3104 3110 3114 3118 3121 3124 3127 3129 3131 3134 3138 3140 3141 3141 3141 3143 3144 3144 3143 3144 3144 3145 3147 3146 3145 3145 3143 3142 3141 3141 3141
3064 3061 3060 3062 3065 3071 3076 3078 3081 3084 3088 3093 3097 3102 3107 3110 3114 3118 3119 3121 3122 3125 3129 3133 3134 3135 3135 3137 3139 3141 3140 3139 3140 3140 3142 3143 3142 3141 3140 3139 3138 3138 3138
3059 3057 3056 3058 3058 3062 3067 3071 3075 3077 3080 3084 3090 3094 3097 3101 3106 3110 3112 3112 3115 3116 3120 3124 3127 3129 3130 3132 3133 3135 3137 3136 3136 3137 3136 3138 3137 3136 3136 3136 3135 3135 3134
3057 3055 3055 3056 3058 3059 3061 3064 3068 3071 3075 3077 3081 3084 3088 3090 3093 3095 3099 3103 3104 3105 3108 3113 3118 3121 3123 3125 3125 3129 3132 3133 3132 3132 3132 3132 3132 3132 3132 3131 3131 3131 3131
3054 3053 3054 3055 3055 3056 3058 3060 3063 3066 3068 3070 3073 3075 3077 3079 3082 3085 3088 3090 3091 3094 3096 3103 3108 3111 3115 3118 3119 3122 3125 3127 3128 3128 3128 3127 3127 3127 3127 3128 3127 3126 3125
3050 3049 3048 3050 3053 3055 3054 3056 3057 3060 3062 3064 3065 3067 3067 3068 3071 3074 3078 3082 3082 3085 3088 3093 3099 3102 3104 3109 3112 3115 3117 3120 3122 3122 3123 3122 3122 3122 3121 3122 3122 3121 3120
3051 3049 3049 3048 3049 3051 3052 3053 3054 3054 3056 3057 3058 3060 3061 3063 3064 3063 3066 3069 3072 3076 3079 3084 3090 3092 3095 3097 3100 3105 3110 3112 3114 3114 3115 3116 3116 3116 3116 3115 3114 3115 3114
3052 3050 3049 3049 3049 3049 3050 3050 3050 3051 3052 3054 3056 3057 3058 3057 3056 3055 3057 3060 3064 3067 3072 3076 3080 3082 3083 3086 3089 3093 3098 3101 3104 3105 3106 3108 3109 3109 3109 3108 3108 3107 3107
3052 3051 3051 3051 3050 3050 3050 3050 3051 3050 3049 3049 3049 3050 3053 3054 3052 3051 3050 3052 3055 3061 3064 3070 3073 3074 3074 3076 3078 3081 3087 3089 3093 3096 3098 3099 3099 3101 3101 3101 3101 3100 3099
3050 3049 3049 3050 3049 3047 3046 3048 3049 3048 3046 3044 3044 3046 3048 3048 3047 3048 3049 3049 3050 3056 3060 3064 3065 3067 3068 3068 3070 3073 3075 3080 3084 3086 3086 3087 3088 3089 3091 3090 3089 3089 3089
3048 3048 3048 3049 3047 3046 3046 3046 3045 3045 3043 3043 3043 3042 3042 3043 3043 3044 3046 3048 3051 3054 3056 3057 3058 3059 3060 3062 3063 3064 3064 3070 3072 3074 3075 3077 3077 3078 3076 3074 3072 3074 3076
3046 3046 3046 3045 3045 3045 3044 3043 3044 3044 3044 3044 3044 3042 3041 3041 3042 3042 3045 3047 3048 3050 3051 3052 3053 3054 3055 3056 3056 3055 3056 3059 3063 3065 3066 3067 3068 3068 3067 3065 3062 3059 3062
3042 3042 3041 3042 3042 3042 3044 3044 3044 3044 3043 3042 3041 3041 3042 3041 3042 3044 3046 3047 3047 3047 3047 3048 3047 3050 3050 3051 3051 3051 3053 3054 3056 3057 3058 3059 3059 3059 3059 3058 3057 3055 3054
3037 3038 3038 3038 3038 3039 3041 3042 3042 3042 3041 3041 3041 3041 3041 3041 3041 3043 3045 3045 3046 3045 3045 3045 3045 3045 3045 3046 3045 3047 3047 3048 3048 3049 3049 3049 3049 3050 3050 3049 3049 3046 3045
3036 3037 3037 3038 3040 3041 3040 3040 3039 3038 3039 3038 3039 3039 3039 3039 3040 3040 3041 3041 3043 3042 3043 3043 3043 3042 3043 3042 3040 3042 3042 3042 3043 3042 3042 3041 3040 3041 3041 3042 3041 3039 3037
3035 3036 3037 3037 3038 3038 3037 3038 3038 3039 3038 3037 3037 3037 3037 3038 3037 3038 3039 3038 3040 3041 3041 3039 3040 3040 3040 3040 3039 3038 3039 3037 3038 3037 3037 3036 3035 3034 3034 3033 3033 3033 3032
3032 3033 3034 3034 3034 3035 3034 3034 3034 3035 3037 3037 3036 3036 3036 3036 3036 3037 3036 3037 3038 3037 3036 3036 3038 3036 3036 3035 3034 3037 3035 3035 3034 3033 3033 3031 3030 3029 3027 3025 3024 3024 3024
3030 3030 3031 3032 3032 3032 3031 3032 3032 3033 3035 3035 3035 3035 3035 3035 3035 3034 3034 3034 3034 3034 3034 3035 3035 3034 3034 3032 3031 3032 3032 3031 3031 3029 3028 3026 3025 3023 3022 3020 3018 3016 3016
3027 3028 3029 3030 3031 3031 3031 3032 3032 3032 3032 3032 3032 3032 3032 3032 3031 3030 3030 3030 3030 3030 3031 3031 3031 3029 3030 3029 3027 3028 3028 3028 3027 3025 3024 3022 3020 3018 3017 3016 3013 3013 3011
3024 3026 3027 3028 3028 3028 3028 3029 3029 3030 3029 3029 3029 3028 3028 3027 3026 3026 3026 3025 3025 3025 3024 3024 3025 3026 3025 3024 3023 3024 3023 3022 3021 3019 3017 3016 3015 3014 3013 3011 3010 3009 3008
3023 3023 3024 3024 3024 3025 3025 3025 3025 3025 3025 3025 3024 3024 3023 3022 3021 3021 3021 3020 3020 3019 3019 3019 3019 3019 3019 3019 3019 3018 3018 3017 3015 3012 3010 3009 3009 3009 3009 3008 3007 3006 3006
3020 3020 3021 3021 3021 3021 3022 3022 3022 3022 3021 3021 3020 3018 3017 3017 3017 3017 3015 3015 3015 3014 3014 3013 3013 3013 3013 3013 3013 3013 3011 3009 3007 3005 3004 3003 3003 3004 3004 3004 3003 3002 3002
Wind_Speed
30 27 34 34 31 29 31 40 37 39 36 29 28 29 31 30 26 23 20 19 19 16 15 13 13 17 21 26 28 29 29 27 27 22 22 22 21 21 22 23 25 27 30
28 31 33 32 31 32 31 35 41 45 40 35 31 31 32 33 31 26 22 21 20 18 16 16 16 18 20 23 26 26 26 26 26 22 20 20 20 19 18 16 17 18 19
21 29 33 34 34 33 36 36 45 48 43 39 34 33 34 35 35 31 27 23 23 21 20 18 18 19 20 22 23 24 24 23 22 22 21 20 18 16 16 15 15 16 16
20 21 28 37 28 31 36 42 47 44 45 44 40 42 38 39 39 37 34 28 25 24 23 21 20 19 20 21 22 21 21 21 19 19 20 17 17 18 16 15 14 13 14
22 18 24 28 40 32 31 31 43 46 44 46 44 45 43 43 43 43 40 35 29 27 26 24 22 20 19 21 22 21 21 19 18 16 19 19 17 20 18 17 15 14 14
16 15 14 27 33 37 31 28 29 36 37 39 44 46 45 42 42 45 45 42 35 32 29 26 24 24 20 20 21 24 23 20 18 17 19 19 18 19 19 18 17 16 16
12 10 8 13 18 24 28 32 32 35 39 38 38 39 42 41 41 44 48 48 43 38 33 30 28 25 24 21 21 24 26 22 19 19 16 18 19 19 18 17 17 17 17
8 7 6 12 16 17 20 24 23 24 29 28 32 38 42 43 45 45 48 51 49 47 38 33 32 28 27 26 21 25 28 26 21 20 17 18 19 19 18 18 17 18 18
16 11 5 6 9 18 24 24 24 24 24 25 27 33 37 48 49 42 42 49 51 47 46 44 38 32 34 37 31 30 29 30 28 24 22 20 20 20 19 20 20 20 20
8 6 6 8 10 11 12 12 15 21 21 22 18 21 26 32 48 52 45 49 47 47 44 44 44 45 43 41 34 33 31 28 30 28 25 25 24 23 22 21 22 22 24
2 5 4 3 2 7 8 11 14 13 13 13 13 17 23 28 32 31 32 43 44 42 47 49 51 48 45 46 42 37 36 27 28 30 29 28 27 26 26 26 26 26 26
2 4 4 5 6 6 3 1 6 12 15 17 17 18 17 20 23 31 36 26 32 34 39 41 43 46 48 46 43 39 37 28 28 28 30 29 28 28 27 28 29 29 30
1 2 3 3 1 0 0 1 1 0 5 16 23 24 20 11 9 7 7 21 29 32 31 31 33 34 39 46 51 47 38 29 33 30 31 29 27 29 33 34 32 33 35
4 2 3 4 4 3 2 2 3 1 2 3 1 9 14 15 12 11 10 9 10 18 18 15 19 22 26 24 27 43 48 45 39 40 31 28 35 42 44 52 50 51 46
5 4 4 4 4 2 2 2 3 4 3 3 4 3 2 8 11 12 14 13 13 14 15 20 20 23 25 32 37 36 41 51 46 45 48 45 42 44 41 42 42 46 47
8 6 6 5 5 4 3 2 2 2 1 1 0 0 1 0 2 5 7 8 8 9 11 14 17 20 23 27 25 24 21 38 43 35 30 31 32 33 35 33 29 30 39
8 10 7 6 6 6 6 5 4 4 3 3 2 2 2 2 2 3 5 6 6 6 7 8 9 10 13 17 15 15 18 21 25 27 26 28 31 36 36 34 37 34 36
7 7 7 6 5 5 5 6 6 4 4 3 2 3 3 2 2 3 4 5 6 6 5 6 6 7 9 11 13 16 20 23 25 26 29 32 34 34 31 29 29 26 26
4 7 7 7 5 4 3 4 5 4 4 3 4 5 5 4 4 3 4 4 5 4 5 6 7 8 9 10 10 12 13 15 17 19 21 21 22 23 24 28 26 25 25
4 5 6 7 6 5 6 6 6 6 4 3 4 6 7 9 8 6 4 4 5 5 6 6 7 7 8 8 7 8 10 12 14 15 17 18 19 20 26 30 32 30 32
5 6 6 5 5 5 5 6 6 5 6 6 5 5 5 4 2 4 5 6 7 7 8 8 8 7 6 6 6 7 8 9 10 11 12 13 14 17 20 21 25 28 25
6 7 5 5 5 5 6 6 6 8 10 9 8 7 7 6 6 7 7 7 8 9 9 10 10 9 9 9 8 9 10 11 13 14 15 15 16 16 16 16 17 20 21
5 5 6 6 4 4 4 5 6 7 7 7 7 8 9 9 9 9 10 11 11 11 12 12 13 13 12 11 11 12 12 14 16 17 18 18 18 18 18 18 18 17 14
6 7 9 9 7 4 4 5 6 7 7 7 7 7 7 8 9 11 13 13 15 16 16 16 16 16 16 16 17 17 18 20 22 24 21 19 18 18 18 18 18 16 14
8 10 11 10 9 7 6 7 8 9 9 9 8 8 7 6 8 10 12 13 14 16 17 17 18 17 17 17 18 19 21 22 24 24 21 19 18 17 15 16 15 16 13
10 11 12 12 12 11 12 11 11 10 9 8 9 9 9 8 9 10 10 11 12 12 14 16 17 16 16 17 18 20 22 23 21 19 19 18 18 17 15 16 17 15 14
Wind_Direction
250 248 233 235 234 235 232 230 229 222 219 222 231 242 252 252 251 256 268 267 272 274 272 272 263 254 250 247 248 256 262 267 273 271 273 273 275 272 275 280 278 275 268
243 245 232 230 229 236 238 225 229 225 217 218 226 232 238 246 248 247 255 263 263 267 265 261 257 256 254 251 251 254 258 262 266 268 269 270 281 281 279 284 285 281 274
268 245 236 234 226 227 231 233 224 226 226 220 225 234 239 243 250 254 251 250 255 259 258 259 259 260 259 257 256 256 258 260 266 269 259 269 275 277 275 273 283 286 280
279 261 245 239 227 219 223 224 220 222 225 224 224 233 237 239 243 248 250 248 247 254 259 259 259 265 270 268 263 256 257 260 263 270 266 265 271 273 273 275 275 273 279
276 273 252 247 234 224 226 231 231 231 224 228 228 234 236 240 240 243 248 248 248 248 253 257 264 265 270 274 272 264 258 260 261 264 267 267 269 273 272 271 274 278 280
269 274 269 238 235 230 228 230 241 234 231 231 232 232 235 241 241 240 245 249 241 243 249 254 256 258 260 269 273 271 262 254 257 252 259 267 267 268 270 275 277 277 278
267 281 281 250 239 234 233 229 231 227 226 230 231 234 238 241 244 246 246 250 246 242 243 248 252 252 257 264 270 273 271 262 259 257 257 268 267 265 269 273 273 276 279
291 315 266 237 231 224 218 222 226 224 229 231 237 239 240 239 237 236 238 242 243 243 241 241 247 250 251 261 267 274 275 272 267 265 263 263 267 270 272 271 276 279 281
285 276 262 255 240 233 235 230 232 233 229 233 245 251 252 241 237 235 238 234 232 233 236 242 236 245 260 263 261 265 265 270 271 269 268 266 267 270 275 282 284 283 283
299 308 306 276 250 241 238 238 230 230 228 229 244 260 256 254 246 246 251 239 231 229 229 238 250 253 253 252 258 262 261 265 266 267 267 270 272 276 279 280 283 285 284
79 62 44 8 297 253 265 233 229 227 232 241 252 258 263 262 259 257 247 250 246 241 241 243 248 256 255 248 243 251 259 256 262 264 266 268 270 275 281 284 280 278 281
74 60 59 59 56 64 54 270 237 231 234 239 234 236 249 249 256 258 251 246 238 244 236 237 247 255 253 244 241 235 241 248 257 263 264 264 273 278 278 280 284 284 283
319 342 358 347 312 13 51 52 3 273 225 234 239 244 242 235 239 239 246 239 240 242 246 252 261 254 253 254 245 233 233 250 257 262 260 259 269 276 278 283 286 288 288
295 329 330 326 329 346 31 354 284 205 72 73 215 224 229 235 241 257 299 252 236 237 248 254 268 269 263 268 255 249 247 243 251 255 262 273 285 286 283 276 273 273 284
285 288 291 295 307 333 21 5 351 346 5 49 55 58 271 252 262 269 274 260 257 259 264 272 269 268 266 268 272 265 244 239 246 265 267 271 272 273 284 272 271 273 273
253 246 254 261 268 270 269 262 254 255 260 265 285 82 121 118 242 245 256 267 266 260 258 262 265 265 259 265 260 266 278 251 259 269 272 273 271 283 282 275 281 279 263
252 228 229 247 258 257 246 229 221 229 223 217 213 234 243 206 212 234 243 240 236 240 249 255 265 267 268 266 268 264 269 269 274 274 271 270 272 274 271 274 280 282 274
244 240 241 251 262 259 249 234 221 212 224 239 252 261 270 288 306 309 308 300 285 270 276 283 283 284 282 280 279 274 272 273 278 281 279 274 273 274 271 271 272 274 277
229 252 265 252 230 211 219 238 244 229 231 255 270 276 281 281 281 292 294 295 289 289 285 290 293 296 295 294 294 292 291 289 288 286 284 280 273 272 264 272 282 264 281
252 242 245 253 257 268 262 246 253 267 263 258 261 260 262 274 277 268 273 281 279 281 286 297 302 298 295 299 303 303 301 301 299 297 293 291 285 279 273 273 277 273 273
263 252 246 247 258 263 259 256 255 243 240 246 258 264 277 264 252 258 278 281 285 294 301 301 294 296 300 304 312 312 315 318 318 320 317 312 305 299 291 285 285 273 282
272 259 247 244 257 252 235 231 228 235 242 245 248 254 266 276 275 267 268 269 275 281 282 281 278 280 287 292 296 302 310 316 316 315 312 313 311 308 307 309 303 291 284
253 246 240 251 259 252 243 248 248 245 245 250 258 262 265 267 270 273 275 276 276 273 274 277 282 286 285 287 292 294 299 306 308 309 304 299 299 301 303 306 306 312 301
245 236 243 255 254 244 250 264 267 269 272 276 274 270 265 262 266 270 271 273 276 276 277 275 273 277 283 287 289 293 302 310 311 309 302 293 291 293 294 294 295 301 303
250 248 247 247 252 266 284 289 286 280 277 279 284 284 283 291 291 282 278 277 277 271 269 267 263 262 266 271 280 286 295 300 306 303 298 290 286 291 294 292 291 290 285
261 260 258 257 258 260 264 267 267 266 270 281 290 296 306 311 303 292 286 284 281 277 270 264 261 260 264 269 280 289 296 299 299 297 294 284 279 282 281 285 289 288 280